sat.trackr.live / text

‹ back to catalog

STARLINK-33874

NORAD 63825 · 2025-092X

PAYLOAD ACTIVE UNKNOWN

§ Identity

Operator
Country
US
Launch date
2025-05-04
Launch site
AFETR
Launch vehicle
Mass (kg)
RCS (m²)

Purposes: comms

External: N2YO · Heavens-Above · Gunter

§ Orbital elements

Epoch: 2026-09-19T02:25:43.574592Z

Period
94.27 min
Inclination
43.0014°
Eccentricity
0.0001001
Mean motion
15.27587141 rev/d
Perigee alt
482.3 km
Apogee alt
483.7 km
Semi-major
6,861.2 km
B*
3.6236e-4
RAAN
160.3265°
Arg perigee
274.1436°
Mean anomaly
85.9301°
Rev number
7,824

§ Raw data

STARLINK-338741 63825U 25092X   26262.10119878  .00009725  00000+0  36236-3 0  99902 63825  43.0014 160.3265 0001001 274.1436  85.9301 15.27587141 78248

JSON: /api/v1/satellites/63825 · /tle

For live sub-satellite position, see the globe view (requires WebGL).

§ Visibility from observer

Set your observer location to see the next 7 days of passes ≥ 10°. The values pass through the URL so the page stays shareable.

No JS? Fill the form by hand. The geolocation button needs JavaScript.